Regional Weather Roundup
Issued by NWS

Home | Current Version | Previous Version | Text Only | Print | Product List | Glossary Off
Versions: 1 2 3 4 5 6 7 8 9 10 11 12 13 14 15 16 17 18 19 20 21 22 23 24 25 26 27 28 29 30 31 32 33 34 35 36 37 38 39 40 41 42 43 44 45 46 47 48 49 50

000
ASUS45 KCYS 052110
RWRWY

WYOMING REGIONAL WEATHER ROUNDUP
NATIONAL WEATHER SERVICE CHEYENNE WY
200 PM MST THU MAR 05 2015

NOTE:  "FAIR" INDICATES FEW OR NO CLOUDS BELOW 12,000 FEET
WITH NO SIGNIFICANT WEATHER AND/OR OBSTRUCTIONS TO VISIBILITY.

WYZ001-052200-
YELLOWSTONE NATIONAL PARK

CITY           SKY/WX    TMP DP  RH WIND       PRES   REMARKS
LK YELLOWSTONE   N/A     30   2  30 W9        30.27F WCI  22
W YELLOWSTONE  NOT AVBL

$$
WYZ002>013-054>058-071-098>099-052200-
NORTHERN WYOMING

CITY           SKY/WX    TMP DP  RH WIND       PRES   REMARKS
JACKSON        NOT AVBL
CODY           FAIR      46  10  23 NW14G21   30.13S
GREYBULL       FAIR      39  11  31 SE10      30.20F WCI  32
WORLAND        FAIR      38  13  35 S6        30.19F WCI  33
SHERIDAN       FAIR      41  19  41 W6        30.13F
BUFFALO        FAIR      39  12  33 VRB5      30.14
GILLETTE       FAIR      40  17  39 W20       30.11F WCI  30
HULETT         FAIR      41  16  36 W9G24     30.11S
NEWCASTLE      FAIR      41  10  28 W21       30.13F

$$
WYZ014>020-022>026-101>103-052200-
CENTRAL WYOMING

CITY           SKY/WX    TMP DP  RH WIND       PRES   REMARKS
BIG PINEY      FAIR      41   7  24 N21       30.25F
PINEDALE       FAIR      32  12  43 W18G25    30.26S WCI  20
DUBOIS         FAIR      36  10  35 NW22G29   30.18S WCI  24
LANDER         FAIR      23  10  57 NE5       30.18F WCI  17
RIVERTON       FAIR      17   9  70 E6        30.20F WCI   9
CASPER         FAIR      31  19  61 SW18      30.20S WCI  19
DOUGLAS        FAIR      34  20  56 W12       30.18F WCI  25

$$
WYZ021-027>030-104>119-052200-
SOUTHERN WYOMING

CITY           SKY/WX    TMP DP  RH WIND       PRES   REMARKS
EVANSTON       FAIR      34  16  47 W16       30.35F WCI  24
KEMMERER       FAIR      36  16  44 W18G26    30.31F WCI  25
FORT BRIDGER   FAIR      36  19  49 W21       30.36F WCI  25
ROCK SPRINGS   FAIR      33  19  56 W26       30.27F WCI  20
DIXON          FAIR      35  15  45 SW12      30.35S WCI  26
RAWLINS        FAIR      29  16  58 W29G40    30.20F WCI  14
SARATOGA       FAIR      32  18  55 W15       30.26F WCI  22
LARAMIE        FAIR      33  14  45 W17       30.15F WCI  22
CHEYENNE       FAIR      39  15  37 W17G26    30.15F WCI  30
TORRINGTON     FAIR      43  15  32 W13G21    30.18F
PINE BLUFFS    MOCLDY    41  14  33 NW15G22   30.18F

$$


USA.gov is the U.S. government's official web portal to all federal, state and local government web resources and services.